Lid_Strength_Index
-1 -1 -1 -2 -2 -2 -2 -2 -1 -1 -1 -1 -1 -1 -1 -1 -1 -2 -2 -1 -1 -1 -1 -1 -1 -1 -1 -1 -1 -1 -1 -1 -1 -1 -1 -1 -1 -1 -1 -1 -1 -1 -1
-2 -2 -2 -1 -1 -2 -2 -2 -1 -1 -1 -1 -1 -1 -1 -1 -1 -2 -2 -2 -1 -1 -1 -1 -1 -1 -1 -1 -1 -1 -1 -1 -1 -1 -1 -1 -1 -1 -1 -1 -1 -1 -1
-2 -2 -2 -2 -1 -2 -2 -2 -1 -1 -1 -1 -1 -1 -1 -1 -1 -2 -2 -2 -2 -1 -1 -1 -1 -1 -1 -1 -1 -1 -1 -1 -1 -1 -1 -1 -1 -1 -1 -1 -1 -1 -1
-2 -2 -1 -1 -1 -1 -2 -1 -1 -1 0 -1 -0 -1 -1 -1 -1 -2 -2 -2 -2 -2 -1 -1 -1 -1 -1 -1 -1 -1 -1 -1 -1 -1 -1 -1 -1 -1 -1 -1 -1 -1 -1
-2 -2 -1 -1 -1 -1 -1 -1 -1 -1 0 -0 -0 -0 -1 -1 -1 -2 -2 -2 -2 -2 -2 -1 -1 -1 -1 -1 -1 -1 -1 -1 -1 -1 -1 -1 -1 -1 -1 -1 -1 -1 -1
-2 -1 -1 -1 -1 -1 -1 -1 -1 -1 -1 -0 0 0 -1 -1 -2 -2 -2 -2 -2 -2 -2 -2 -2 -2 -1 -1 -1 -1 -1 -1 -1 -1 -1 -1 -1 -1 -1 -1 -1 -1 -1
-2 -1 -1 -1 -1 -1 -1 -1 -0 -0 0 -1 0 1 -0 -1 -1 -1 -2 -2 -2 -2 -2 -2 -2 -2 -2 -1 -1 -1 -1 -1 -1 -1 -1 -1 -1 -1 -1 -1 -1 -1 -1
-2 -1 -1 -1 -1 -0 -1 -1 -0 0 -0 -1 1 1 3 2 -0 -1 -1 -1 -1 -2 -2 -2 -2 -2 -2 -2 -2 -1 -1 -1 -1 -1 -1 -1 -1 -1 -1 -1 -1 -1 -1
-1 -1 -1 -1 -1 -1 -1 -1 -0 -0 1 -0 -0 1 3 3 2 -0 -0 -1 -1 -1 -2 -2 -2 -2 -2 -2 -2 -2 -1 -1 -1 -1 -1 -1 -1 -1 -1 -1 -2 -2 -2
-1 -1 -1 -1 -2 -1 -1 -0 -1 -1 -0 1 0 -0 -0 1 2 3 0 0 -0 -0 -1 -1 -1 -1 -2 -2 -1 -2 -2 -2 -2 -1 -1 -1 -1 -1 -2 -2 -2 -2 -2
-1 -1 -1 -1 -1 -1 -1 -1 -1 -0 -0 0 0 0 0 0 0 2 3 1 0 -0 -1 -1 -1 -1 -2 -2 -2 -2 -3 -3 -3 -2 -2 -2 -2 -1 -1 -1 -1 -1 -1
-0 -1 -1 -1 -1 -1 -1 -1 -1 -1 -0 -0 -0 -0 1 1 1 2 2 2 2 0 -1 -1 -1 -1 -2 -2 -2 -2 -2 -3 -3 -3 -3 -3 -3 -2 -2 -1 -1 -1 -1
0 -0 -1 -1 -1 -1 -1 -1 -1 -1 -0 0 -0 0 -0 0 -0 0 1 2 2 0 0 -0 -1 -2 -1 -2 -2 -2 -2 -2 -2 -2 -2 -2 -3 -3 -3 -2 -2 -2 -2
-0 -1 -1 -1 -1 -1 -1 -1 -0 -0 -1 -0 -0 -0 0 -0 -0 0 1 2 3 2 1 1 -1 -1 -2 -2 -2 -2 -2 -1 -1 -1 -1 -1 -1 -2 -2 -3 -3 -3 -3
-1 -1 -1 -1 -1 -1 -1 -1 -0 -0 -0 -0 -0 -0 0 -0 -0 -0 -0 0 2 4 3 0 0 -1 -1 -2 -2 -2 -2 -1 -0 -1 0 0 -0 -1 -1 -2 -2 -2 -2
-1 -1 -0 -1 -1 -1 -1 -1 -0 -1 -0 -0 -0 -0 -0 -0 -0 -0 -0 0 0 2 4 0 0 -1 -1 -1 -2 -2 -2 -1 0 0 0 1 1 -0 -1 -2 -2 -1 -1
-0 -0 -0 -0 -0 -0 -0 -0 -0 -0 0 -0 -0 -0 0 -0 0 0 -0 0 1 1 2 1 0 -1 -1 -1 -1 -2 -2 -2 -2 0 0 0 1 1 1 0 0 -0 -0
-1 -1 -1 -0 -0 -0 -1 -0 0 -0 0 0 0 0 0 0 0 -0 0 0 0 0 1 2 0 0 -0 -1 -1 -1 -1 -1 -2 -0 1 1 1 1 2 1 1 1 1
-0 -0 -0 -0 0 -0 -0 -0 -0 -0 0 0 0 0 0 0 0 0 0 1 0 0 1 2 2 0 0 -0 -0 -1 -1 -1 -1 -1 1 2 2 2 3 3 4 4 5
0 0 -0 -0 -0 -0 -0 -0 -0 -0 0 -0 -0 -0 -0 0 0 0 0 0 0 1 1 1 2 1 1 -0 0 1 1 -0 0 -1 -0 1 1 2 3 4 4 4 5
0 -0 0 -0 -0 -0 0 0 -0 0 0 0 -0 -0 -0 0 1 1 0 0 0 1 1 2 2 2 2 2 2 1 1 1 0 -0 -0 -0 -1 -1 -0 2 1 2 3
0 0 0 0 0 0 2 3 1 0 0 0 1 0 -0 1 1 3 3 3 0 1 1 2 2 2 2 1 1 1 2 2 3 -1 0 1 1 1 1 1 2 4 4
0 1 1 0 0 0 4 4 3 0 0 0 0 0 0 -0 0 -0 2 4 4 4 3 1 2 2 2 1 1 1 1 2 2 1 1 2 -0 1 0 1 5 5 6
1 1 1 0 0 0 5 5 4 -0 0 0 0 -0 0 0 0 0 0 0 0 -0 -0 0 0 0 -0 -0 -0 1 1 1 1 0 -0 3 0 1 -0 0 4 6 6
1 1 1 1 1 0 6 6 4 0 1 0 0 -0 0 0 2 5 0 1 1 0 2 5 4 5 6 7 5 2 2 3 3 2 0 2 1 1 1 1 -0 5 6
1 1 1 0 2 1 5 7 5 1 1 1 0 0 4 1 5 7 1 1 2 1 0 0 0 2 4 3 7 4 3 4 4 3 1 2 2 2 3 0 0 -0 -0